Weather History for Mackinac Island, MI

Change the Weather History Date:

Monday, March 21, 2011

  Actual Average Record
Temperature  
Mean Temperature 34 °F -  
Max Temperature 37 °F 33 °F 74 °F (2012)
Min Temperature 32 °F 21 °F -2 °F (1989)
Degree Days  
Heating Degree Days 30    
Moisture  
Dew Point 33 °F    
Average Humidity 98    
Maximum Humidity 100    
Minimum Humidity 93    
Precipitation  
Precipitation 0.03 in - - ()
Sea Level Pressure  
Sea Level Pressure 29.95 in    
Wind  
Wind Speed 5 mph (NW)    
Max Wind Speed 10 mph    
Max Gust Speed 16 mph    
Visibility 5 miles    
Events Fog , Snow    
Averages and records for this station are not official NWS values.
T = Trace of Precipitation, MM = Missing Value Source: NWS Daily Summary

Daily Weather History Graph

Daily Weather History Graph

Search for Another Location

Airport:

Trip Planner

Search our weather history database for the weather conditions in past years. The results will help you decide how hot, cold, wet, or windy it might be!

Date:

Astronomy

Mar. 21, 2011 Rise Set
Actual Time 7:40 AM EDT 7:52 PM EDT
Civil Twilight 7:10 AM EDT 8:21 PM EDT
Nautical Twilight 6:35 AM EDT 8:56 PM EDT
Astronomical Twilight 5:59 AM EDT 9:33 PM EDT
Moon 10:59 PM EDT (3/21) 8:10 AM EDT (3/21)
Length of Visible Light 13h 11m
Length of Day
12h 11m
Waning Gibbous, 95% of the Moon is Illuminated
Mar 21
Waning Gibbous
Mar 26
Last Quarter
Apr 3
New
Apr 11
First Quarter
Apr 17
Full

Hourly Weather History & Observations

Time (EDT) Temp. Windchill Dew Point Humidity Pressure Visibility Wind Dir Wind Speed Gust Speed Precip Events Conditions
12:12 AM 32.0 °F 23.6 °F 32.0 °F 100% 29.95 in 2.0 mi ESE 10.4 mph - 0.03 in Snow Light Snow
1:12 AM 32.0 °F - 32.0 °F 100% 29.95 in 4.0 mi Calm Calm - N/A   Overcast
1:52 AM 32.0 °F 28.7 °F 32.0 °F 100% 29.93 in 4.0 mi ESE 3.5 mph - N/A   Overcast
2:12 AM 32.0 °F 27.5 °F 32.0 °F 100% 29.91 in 1.8 mi East 4.6 mph - N/A   Overcast
2:52 AM 32.0 °F 27.5 °F 32.0 °F 100% 29.89 in 1.0 mi ESE 4.6 mph - N/A   Overcast
3:52 AM 32.0 °F 27.5 °F 32.0 °F 100% 29.85 in 0.8 mi East 4.6 mph - N/A   Overcast
4:12 AM 32.0 °F - 32.0 °F 100% 29.87 in 1.0 mi Calm Calm - 0.02 in   Overcast
5:12 AM 32.0 °F 28.7 °F 32.0 °F 100% 29.87 in 0.5 mi ESE 3.5 mph - N/A Fog Fog
6:32 AM 32.0 °F - 32.0 °F 100% 29.85 in 0.8 mi Calm Calm - N/A   Overcast
6:52 AM 32.0 °F - 32.0 °F 100% 29.85 in 0.5 mi Calm Calm - N/A Fog Fog
7:12 AM 32.0 °F - 32.0 °F 100% 29.84 in 0.5 mi Calm Calm - N/A Fog Fog
7:52 AM 32.0 °F - 32.0 °F 100% 29.85 in 0.2 mi Calm Calm - N/A Fog Fog
8:12 AM 32.0 °F 28.7 °F 32.0 °F 100% 29.86 in 0.2 mi WSW 3.5 mph - N/A Fog Fog
8:32 AM 32.0 °F 27.5 °F 32.0 °F 100% 29.86 in 0.2 mi WSW 4.6 mph - N/A Fog Fog
8:52 AM 32.0 °F - 32.0 °F 100% 29.86 in 0.2 mi Calm Calm - N/A Fog Fog
9:12 AM 32.0 °F 26.4 °F 32.0 °F 100% 29.88 in 0.2 mi West 5.8 mph - N/A Fog Fog
9:32 AM 32.0 °F 27.5 °F 32.0 °F 100% 29.89 in 0.2 mi West 4.6 mph - N/A Snow Light Snow
9:52 AM 32.0 °F 28.7 °F 32.0 °F 100% 29.89 in 0.2 mi West 3.5 mph - N/A Fog Fog
10:12 AM 32.0 °F 27.5 °F 32.0 °F 100% 29.88 in 0.2 mi West 4.6 mph - N/A Fog Fog
10:32 AM 33.8 °F 30.8 °F 32.0 °F 93% 29.87 in 0.2 mi WSW 3.5 mph - N/A Fog Fog
10:52 AM 33.8 °F 27.0 °F 32.0 °F 93% 29.88 in 0.5 mi West 8.1 mph - N/A Fog Fog
11:12 AM 33.8 °F 26.4 °F 33.8 °F 100% 29.89 in 1.5 mi WNW 9.2 mph - N/A   Overcast
11:52 AM 33.8 °F 27.0 °F 33.8 °F 100% 29.90 in 3.0 mi West 8.1 mph - N/A   Overcast
12:12 PM 33.8 °F 30.8 °F 33.8 °F 100% 29.91 in 2.5 mi West 3.5 mph - N/A   Overcast
12:32 PM 33.8 °F 27.0 °F 33.8 °F 100% 29.92 in 0.2 mi West 8.1 mph - N/A Fog Fog
12:53 PM 33.8 °F 28.6 °F 33.8 °F 100% 29.92 in 0.2 mi WNW 5.8 mph - N/A Fog Fog
1:12 PM 33.8 °F 27.0 °F 33.8 °F 100% 29.93 in 0.2 mi West 8.1 mph - N/A Fog Fog
1:32 PM 33.8 °F 25.8 °F 33.8 °F 100% 29.93 in 0.5 mi West 10.4 mph - N/A Fog Fog
1:52 PM 33.8 °F 27.0 °F 33.8 °F 100% 29.93 in 1.0 mi WNW 8.1 mph - N/A   Overcast
2:32 PM 35.6 °F 29.2 °F 35.6 °F 100% 29.94 in 10.0 mi WNW 8.1 mph - N/A   Overcast
2:52 PM 35.6 °F 28.6 °F 35.6 °F 100% 29.95 in 10.0 mi WNW 9.2 mph 16.1 mph N/A   Overcast
3:12 PM 37.4 °F 30.3 °F 35.6 °F 93% 29.95 in 10.0 mi WNW 10.4 mph 16.1 mph 0.01 in   Overcast
3:32 PM 35.6 °F 29.2 °F 35.6 °F 100% 29.95 in 10.0 mi NW 8.1 mph 16.1 mph 0.01 in   Overcast
4:12 PM 35.6 °F 29.9 °F 35.6 °F 100% 29.96 in 10.0 mi WNW 6.9 mph - N/A   Overcast
4:32 PM 35.6 °F 28.6 °F 35.6 °F 100% 29.98 in 10.0 mi WNW 9.2 mph - N/A   Overcast
4:52 PM 35.6 °F 29.2 °F 35.6 °F 100% 29.98 in 10.0 mi NW 8.1 mph - N/A   Overcast
5:12 PM 35.6 °F 31.7 °F 35.6 °F 100% 30.00 in 10.0 mi NNW 4.6 mph - N/A   Overcast
5:32 PM 35.6 °F 29.2 °F 33.8 °F 93% 30.00 in 10.0 mi NW 8.1 mph - N/A   Overcast
6:32 PM 35.6 °F 31.7 °F 33.8 °F 93% 30.02 in 10.0 mi NW 4.6 mph - N/A   Overcast
6:52 PM 35.6 °F 31.7 °F 33.8 °F 93% 30.02 in 10.0 mi NNW 4.6 mph - N/A   Overcast
7:12 PM 33.8 °F 28.6 °F 33.8 °F 100% 30.03 in 10.0 mi NNW 5.8 mph - N/A   Overcast
7:32 PM 33.8 °F 27.7 °F 33.8 °F 100% 30.04 in 10.0 mi North 6.9 mph - N/A   Overcast
7:52 PM 33.8 °F 28.6 °F 32.0 °F 93% 30.04 in 10.0 mi North 5.8 mph - N/A   Overcast
8:12 PM 33.8 °F - 32.0 °F 93% 30.05 in 10.0 mi Calm Calm - N/A   Overcast
8:32 PM 33.8 °F 29.6 °F 32.0 °F 93% 30.06 in 10.0 mi NNW 4.6 mph - N/A   Overcast
8:52 PM 33.8 °F 27.7 °F 32.0 °F 93% 30.06 in 10.0 mi North 6.9 mph - N/A   Overcast
9:12 PM 33.8 °F 28.6 °F 32.0 °F 93% 30.07 in 10.0 mi NNW 5.8 mph - N/A   Overcast
9:32 PM 33.8 °F 28.6 °F 32.0 °F 93% 30.08 in 10.0 mi NNW 5.8 mph - N/A   Overcast
9:52 PM 33.8 °F 28.6 °F 32.0 °F 93% 30.08 in 10.0 mi North 5.8 mph - N/A   Overcast
10:12 PM 33.8 °F 28.6 °F 32.0 °F 93% 30.09 in 10.0 mi North 5.8 mph - N/A   Overcast
10:32 PM 33.8 °F 29.6 °F 32.0 °F 93% 30.10 in 10.0 mi NNW 4.6 mph - N/A   Overcast
10:52 PM 33.8 °F 30.8 °F 32.0 °F 93% 30.11 in 10.0 mi NNW 3.5 mph - N/A   Overcast
11:12 PM 33.8 °F 29.6 °F 32.0 °F 93% 30.13 in 10.0 mi NNW 4.6 mph - N/A   Overcast
11:32 PM 32.0 °F 28.7 °F 32.0 °F 100% 30.13 in 10.0 mi North 3.5 mph - N/A   Overcast
11:52 PM 32.0 °F - 32.0 °F 100% 30.13 in 10.0 mi Calm Calm - N/A   Overcast